| time (UTC) | temp C | wind direction | speed KPH | gust KPH | rain 1hr cm | rain 24hr cm | rain mn cm | humidity % | barometer mb |
| 20260906232751 | 30 | 205 | 0.0 | 0.0 | 0.00 | 0.00 | 0.00 | 30 | 1020.4 |
| 20260906232246 | 30 | 201 | 0.0 | 0.0 | 0.00 | 0.00 | 0.00 | 30 | 1020.4 |
| 20260906231746 | 30 | 233 | 3.2 | 3.2 | 0.00 | 0.00 | 0.00 | 28 | 1020.6 |
| 20260906231241 | 30 | 202 | 3.2 | 4.8 | 0.00 | 0.00 | 0.00 | 28 | 1020.1 |
| 20260906230740 | 29 | 161 | 1.6 | 3.2 | 0.00 | 0.00 | 0.00 | 29 | 1020.9 |
| 20260906230235 | 30 | 149 | 0.0 | 1.6 | 0.00 | 0.00 | 0.00 | 29 | 1020.3 |
| 20260906225734 | 31 | 183 | 3.2 | 4.8 | 0.00 | 0.00 | 0.00 | 26 | 1020.6 |
| 20260906225230 | 31 | 157 | 1.6 | 1.6 | 0.00 | 0.00 | 0.00 | 26 | 1020.4 |
| 20260906224725 | 31 | 191 | 3.2 | 3.2 | 0.00 | 0.00 | 0.00 | 27 | 1020.3 |
| 20260906224221 | 30 | 187 | 1.6 | 1.6 | 0.00 | 0.00 | 0.00 | 28 | 1020.4 |
| 20260906223718 | 30 | 138 | 0.0 | 0.0 | 0.00 | 0.00 | 0.00 | 30 | 1020.3 |
| 20260906223213 | 29 | 160 | 0.0 | 1.6 | 0.00 | 0.00 | 0.00 | 30 | 1020.4 |
| 20260906222711 | 30 | 167 | 0.0 | 0.0 | 0.00 | 0.00 | 0.00 | 31 | 1020.6 |
| 20260906222210 | 29 | 161 | 1.6 | 1.6 | 0.00 | 0.00 | 0.00 | 30 | 1020.7 |
| 20260906221708 | 29 | 108 | 1.6 | 1.6 | 0.00 | 0.00 | 0.00 | 35 | 1020.7 |
| 20260906221203 | 29 | 147 | 3.2 | 3.2 | 0.00 | 0.00 | 0.00 | 29 | 1020.6 |
| 20260906220658 | 30 | 120 | 1.6 | 1.6 | 0.00 | 0.00 | 0.00 | 29 | 1020.6 |
| 20260906220153 | 30 | 165 | 0.0 | 1.6 | 0.00 | 0.00 | 0.00 | 28 | 1020.7 |
| 20260906215652 | 30 | 164 | 1.6 | 1.6 | 0.00 | 0.00 | 0.00 | 26 | 1020.7 |
| 20260906215151 | 30 | 208 | 3.2 | 4.8 | 0.00 | 0.00 | 0.00 | 26 | 1020.6 |
| 20260906214649 | 30 | 208 | 1.6 | 3.2 | 0.00 | 0.00 | 0.00 | 27 | 1020.8 |
| 20260906214144 | 30 | 122 | 0.0 | 1.6 | 0.00 | 0.00 | 0.00 | 27 | 1020.7 |
| 20260906213643 | 30 | 95 | 1.6 | 3.2 | 0.00 | 0.00 | 0.00 | 26 | 1020.7 |
| 20260906213138 | 30 | 259 | 4.8 | 4.8 | 0.00 | 0.00 | 0.00 | 27 | 1020.9 |
| 20260906212636 | 31 | 225 | 3.2 | 3.2 | 0.00 | 0.00 | 0.00 | 26 | 1021.2 |
| 20260906212132 | 31 | 237 | 0.0 | 1.6 | 0.00 | 0.00 | 0.00 | 27 | 1020.9 |
| 20260906211631 | 31 | 122 | 1.6 | 1.6 | 0.00 | 0.00 | 0.00 | 27 | 1020.8 |
| 20260906211126 | 31 | 160 | 3.2 | 3.2 | 0.00 | 0.00 | 0.00 | 25 | 1020.8 |
| 20260906210622 | 32 | 190 | 3.2 | 3.2 | 0.00 | 0.00 | 0.00 | 24 | 1020.9 |
| 20260906210117 | 31 | 158 | 1.6 | 1.6 | 0.00 | 0.00 | 0.00 | 26 | 1021.2 |
| 20260906205612 | 31 | 284 | 3.2 | 3.2 | 0.00 | 0.00 | 0.00 | 30 | 1021.0 |
| 20260906205109 | 30 | 237 | 1.6 | 1.6 | 0.00 | 0.00 | 0.00 | 27 | 1021.3 |
| 20260906204607 | 28 | 187 | 0.0 | 0.0 | 0.00 | 0.00 | 0.00 | 32 | 1021.3 |
| 20260906204103 | 28 | 113 | 1.6 | 1.6 | 0.00 | 0.00 | 0.00 | 31 | 1021.3 |
| 20260906203602 | 28 | 142 | 1.6 | 3.2 | 0.00 | 0.00 | 0.00 | 30 | 1021.4 |
| 20260906203057 | 28 | 85 | 0.0 | 0.0 | 0.00 | 0.00 | 0.00 | 33 | 1021.3 |
| 20260906202553 | 28 | 229 | 1.6 | 1.6 | 0.00 | 0.00 | 0.00 | 32 | 1021.7 |
| 20260906202048 | 28 | 250 | 3.2 | 3.2 | 0.00 | 0.00 | 0.00 | 31 | 1021.4 |
| 20260906201547 | 28 | 150 | 0.0 | 1.6 | 0.00 | 0.00 | 0.00 | 31 | 1021.5 |
| 20260906201042 | 29 | 250 | 4.8 | 4.8 | 0.00 | 0.00 | 0.00 | 28 | 1021.4 |
| 20260906200538 | 28 | 158 | 0.0 | 0.0 | 0.00 | 0.00 | 0.00 | 31 | 1021.8 |
| 20260906200034 | 28 | 190 | 4.8 | 8.0 | 0.00 | 0.00 | 0.00 | 28 | 1021.5 |
| 20260906195529 | 28 | 87 | 3.2 | 3.2 | 0.00 | 0.00 | 0.00 | 29 | 1021.9 |
| 20260906195025 | 28 | 46 | 1.6 | 1.6 | 0.00 | 0.00 | 0.00 | 30 | 1021.8 |
| 20260906194521 | 28 | 94 | 1.6 | 1.6 | 0.00 | 0.00 | 0.00 | 32 | 1021.5 |
| 20260906194016 | 28 | 176 | 0.0 | 1.6 | 0.00 | 0.00 | 0.00 | 30 | 1021.7 |
| 20260906193516 | 28 | 185 | 1.6 | 1.6 | 0.00 | 0.00 | 0.00 | 34 | 1022.0 |
| 20260906193012 | 28 | 185 | 1.6 | 3.2 | 0.00 | 0.00 | 0.00 | 28 | 1021.9 |
| 20260906192507 | 30 | 163 | 0.0 | 1.6 | 0.00 | 0.00 | 0.00 | 28 | 1022.1 |
| 20260906192006 | 30 | 201 | 0.0 | 1.6 | 0.00 | 0.00 | 0.00 | 28 | 1022.1 |
| 20260906191501 | 30 | 141 | 1.6 | 1.6 | 0.00 | 0.00 | 0.00 | 27 | 1022.0 |
| 20260906191000 | 30 | 165 | 1.6 | 1.6 | 0.00 | 0.00 | 0.00 | 29 | 1022.4 |
| 20260906190459 | 30 | 154 | 1.6 | 1.6 | 0.00 | 0.00 | 0.00 | 26 | 1022.0 |
| 20260906185954 | 29 | 245 | 1.6 | 1.6 | 0.00 | 0.00 | 0.00 | 26 | 1022.0 |
| 20260906185453 | 28 | 168 | 1.6 | 1.6 | 0.00 | 0.00 | 0.00 | 28 | 1022.1 |
| 20260906184952 | 28 | 92 | 0.0 | 1.6 | 0.00 | 0.00 | 0.00 | 27 | 1022.1 |
| 20260906184448 | 28 | 99 | 3.2 | 3.2 | 0.00 | 0.00 | 0.00 | 27 | 1022.5 |
| 20260906183943 | 28 | 108 | 3.2 | 3.2 | 0.00 | 0.00 | 0.00 | 32 | 1022.4 |
| 20260906183439 | 28 | 97 | 3.2 | 3.2 | 0.00 | 0.00 | 0.00 | 28 | 1022.5 |
| 20260906182934 | 28 | 132 | 1.6 | 1.6 | 0.00 | 0.00 | 0.00 | 26 | 1022.5 |
| 20260906182430 | 27 | 98 | 6.4 | 9.7 | 0.00 | 0.00 | 0.00 | 30 | 1022.6 |
| 20260906181926 | 27 | 81 | 3.2 | 3.2 | 0.00 | 0.00 | 0.00 | 27 | 1022.9 |
| 20260906181421 | 28 | 117 | 3.2 | 3.2 | 0.00 | 0.00 | 0.00 | 30 | 1022.9 |
| 20260906180917 | 27 | 162 | 0.0 | 0.0 | 0.00 | 0.00 | 0.00 | 30 | 1023.0 |
| 20260906180412 | 27 | 323 | 3.2 | 3.2 | 0.00 | 0.00 | 0.00 | 28 | 1023.1 |
| 20260906175909 | 27 | 186 | 1.6 | 1.6 | 0.00 | 0.00 | 0.00 | 34 | 1023.2 |
| 20260906175404 | 27 | 93 | 1.6 | 3.2 | 0.00 | 0.00 | 0.00 | 30 | 1023.4 |
| 20260906174903 | 26 | 128 | 1.6 | 1.6 | 0.00 | 0.00 | 0.00 | 32 | 1023.1 |
| 20260906174403 | 26 | 92 | 1.6 | 1.6 | 0.00 | 0.00 | 0.00 | 34 | 1023.7 |
| 20260906173857 | 26 | 186 | 0.0 | 0.0 | 0.00 | 0.00 | 0.00 | 31 | 1023.5 |
| 20260906173353 | 26 | 149 | 0.0 | 0.0 | 0.00 | 0.00 | 0.00 | 32 | 1023.8 |
| 20260906172852 | 25 | 137 | 0.0 | 1.6 | 0.00 | 0.00 | 0.00 | 35 | 1023.8 |
| 20260906172348 | 25 | 106 | 0.0 | 1.6 | 0.00 | 0.00 | 0.00 | 36 | 1024.0 |
| 20260906171843 | 25 | 81 | 1.6 | 1.6 | 0.00 | 0.00 | 0.00 | 35 | 1023.8 |
| 20260906171338 | 24 | 100 | 1.6 | 1.6 | 0.00 | 0.00 | 0.00 | 39 | 1024.2 |
| 20260906170833 | 24 | 95 | 0.0 | 1.6 | 0.00 | 0.00 | 0.00 | 38 | 1024.1 |
| 20260906170329 | 23 | 88 | 1.6 | 1.6 | 0.00 | 0.00 | 0.00 | 38 | 1024.3 |
| 20260906165826 | 23 | 153 | 0.0 | 0.0 | 0.00 | 0.00 | 0.00 | 38 | 1024.2 |
| 20260906165324 | 23 | 101 | 1.6 | 1.6 | 0.00 | 0.00 | 0.00 | 37 | 1024.1 |
| 20260906164819 | 22 | 160 | 0.0 | 0.0 | 0.00 | 0.00 | 0.00 | 37 | 1024.0 |
| 20260906164314 | 22 | 147 | 0.0 | 0.0 | 0.00 | 0.00 | 0.00 | 40 | 1024.3 |
| 20260906163810 | 22 | 147 | 0.0 | 0.0 | 0.00 | 0.00 | 0.00 | 38 | 1024.2 |
| 20260906163306 | 22 | 103 | 0.0 | 3.2 | 0.00 | 0.00 | 0.00 | 39 | 1024.3 |
| 20260906162803 | 22 | 114 | 0.0 | 0.0 | 0.00 | 0.00 | 0.00 | 40 | 1024.6 |
| 20260906162305 | 21 | 44 | 0.0 | 1.6 | 0.00 | 0.00 | 0.00 | 39 | 1024.5 |
| 20260906161757 | 21 | 46 | 1.6 | 1.6 | 0.00 | 0.00 | 0.00 | 43 | 1024.7 |
| 20260906161256 | 20 | 114 | 0.0 | 0.0 | 0.00 | 0.00 | 0.00 | 43 | 1024.5 |
| 20260906160755 | 20 | 97 | 1.6 | 1.6 | 0.00 | 0.00 | 0.00 | 42 | 1024.6 |
| 20260906160250 | 20 | 131 | 0.0 | 3.2 | 0.00 | 0.00 | 0.00 | 44 | 1024.8 |
| 20260906155748 | 20 | 91 | 1.6 | 3.2 | 0.00 | 0.00 | 0.00 | 44 | 1024.9 |
| 20260906155242 | 19 | 37 | 1.6 | 1.6 | 0.00 | 0.00 | 0.00 | 46 | 1025.1 |
| 20260906154738 | 19 | 144 | 0.0 | 1.6 | 0.00 | 0.00 | 0.00 | 48 | 1024.8 |
| 20260906154233 | 18 | 112 | 0.0 | 0.0 | 0.00 | 0.00 | 0.00 | 53 | 1024.7 |
| 20260906153731 | 17 | 72 | 0.0 | 0.0 | 0.00 | 0.00 | 0.00 | 52 | 1024.9 |
| 20260906153225 | 17 | 71 | 1.6 | 3.2 | 0.00 | 0.00 | 0.00 | 57 | 1025.2 |
| 20260906152721 | 16 | 94 | 1.6 | 3.2 | 0.00 | 0.00 | 0.00 | 56 | 1024.8 |
| 20260906152215 | 16 | 149 | 0.0 | 0.0 | 0.00 | 0.00 | 0.00 | 63 | 1024.7 |
| 20260906151709 | 16 | 144 | 0.0 | 0.0 | 0.00 | 0.00 | 0.00 | 65 | 1025.2 |
| 20260906151206 | 16 | 152 | 0.0 | 0.0 | 0.00 | 0.00 | 0.00 | 58 | 1025.1 |
| 20260906150701 | 16 | 164 | 0.0 | 0.0 | 0.00 | 0.00 | 0.00 | 59 | 1025.4 |
| 20260906150156 | 16 | 87 | 1.6 | 1.6 | 0.00 | 0.00 | 0.00 | 57 | 1025.3 |
| 20260906145654 | 16 | 89 | 1.6 | 1.6 | 0.00 | 0.00 | 0.00 | 61 | 1025.6 |
| 20260906145149 | 16 | 170 | 0.0 | 0.0 | 0.00 | 0.00 | 0.00 | 61 | 1025.4 |
| 20260906144648 | 15 | 114 | 0.0 | 0.0 | 0.00 | 0.00 | 0.00 | 64 | 1025.6 |
| 20260906144143 | 15 | 129 | 3.2 | 3.2 | 0.00 | 0.00 | 0.00 | 66 | 1025.6 |
| 20260906143643 | 15 | 159 | 1.6 | 3.2 | 0.00 | 0.00 | 0.00 | 67 | 1025.6 |
| 20260906143141 | 14 | 154 | 0.0 | 0.0 | 0.00 | 0.00 | 0.00 | 61 | 1025.7 |
| 20260906142640 | 13 | 147 | 0.0 | 0.0 | 0.00 | 0.00 | 0.00 | 70 | 1025.7 |
| 20260906142135 | 13 | 93 | 0.0 | 0.0 | 0.00 | 0.00 | 0.00 | 74 | 1026.0 |
| 20260906141633 | 12 | 187 | 0.0 | 0.0 | 0.00 | 0.00 | 0.00 | 74 | 1026.0 |
| 20260906141129 | 11 | 162 | 0.0 | 0.0 | 0.00 | 0.00 | 0.00 | 69 | 1025.8 |
| 20260906140628 | 11 | 177 | 0.0 | 0.0 | 0.00 | 0.00 | 0.00 | 74 | 1026.0 |
| 20260906140123 | 10 | 196 | 0.0 | 0.0 | 0.00 | 0.00 | 0.00 | 73 | 1026.0 |
| 20260906135621 | 10 | 123 | 0.0 | 0.0 | 0.00 | 0.00 | 0.00 | 79 | 1026.0 |
| 20260906135116 | 9 | 91 | 1.6 | 3.2 | 0.00 | 0.00 | 0.00 | 81 | 1026.0 |
| 20260906134612 | 8 | 140 | 0.0 | 0.0 | 0.00 | 0.00 | 0.00 | 89 | 1025.6 |
| 20260906134107 | 8 | 101 | 1.6 | 1.6 | 0.00 | 0.00 | 0.00 | 89 | 1025.8 |
| 20260906133602 | 7 | 173 | 0.0 | 0.0 | 0.00 | 0.00 | 0.00 | 88 | 1025.9 |
| 20260906133057 | 7 | 157 | 0.0 | 0.0 | 0.00 | 0.00 | 0.00 | 90 | 1025.6 |
| 20260906132552 | 7 | 168 | 0.0 | 0.0 | 0.00 | 0.00 | 0.00 | 89 | 1025.8 |
| 20260906132048 | 7 | 98 | 1.6 | 1.6 | 0.00 | 0.00 | 0.00 | 90 | 1025.7 |
| 20260906131543 | 7 | 171 | 0.0 | 0.0 | 0.00 | 0.00 | 0.00 | 91 | 1025.6 |
| 20260906131038 | 6 | 167 | 0.0 | 0.0 | 0.00 | 0.00 | 0.00 | 92 | 1025.7 |
| 20260906130538 | 6 | 171 | 0.0 | 0.0 | 0.00 | 0.00 | 0.00 | 92 | 1025.6 |
| 20260906130033 | 6 | 171 | 0.0 | 0.0 | 0.00 | 0.00 | 0.00 | 92 | 1025.4 |
| 20260906125530 | 7 | 175 | 0.0 | 0.0 | 0.00 | 0.00 | 0.00 | 91 | 1025.2 |
| 20260906125025 | 7 | 159 | 0.0 | 0.0 | 0.00 | 0.00 | 0.00 | 91 | 1025.2 |
| 20260906124520 | 7 | 161 | 0.0 | 0.0 | 0.00 | 0.00 | 0.00 | 90 | 1025.2 |
| 20260906124015 | 7 | 138 | 0.0 | 0.0 | 0.00 | 0.00 | 0.00 | 91 | 1024.9 |
| 20260906123514 | 7 | 160 | 0.0 | 0.0 | 0.00 | 0.00 | 0.00 | 93 | 1024.9 |
| 20260906123010 | 7 | 188 | 0.0 | 0.0 | 0.00 | 0.00 | 0.00 | 93 | 1025.3 |
| 20260906122503 | 7 | 175 | 0.0 | 0.0 | 0.00 | 0.00 | 0.00 | 93 | 1025.2 |
| 20260906122000 | 7 | 177 | 0.0 | 0.0 | 0.00 | 0.00 | 0.00 | 93 | 1025.3 |
| 20260906121455 | 7 | 174 | 0.0 | 0.0 | 0.00 | 0.00 | 0.00 | 92 | 1025.1 |
| 20260906120952 | 7 | 161 | 0.0 | 0.0 | 0.00 | 0.00 | 0.00 | 92 | 1025.1 |
| 20260906120447 | 7 | 160 | 0.0 | 0.0 | 0.00 | 0.00 | 0.00 | 91 | 1025.3 |
| 20260906115944 | 7 | 174 | 0.0 | 0.0 | 0.00 | 0.00 | 0.00 | 91 | 1025.2 |
| 20260906115439 | 7 | 174 | 0.0 | 0.0 | 0.00 | 0.00 | 0.00 | 90 | 1025.3 |
| 20260906114938 | 7 | 159 | 0.0 | 0.0 | 0.00 | 0.00 | 0.00 | 90 | 1025.1 |
| 20260906114433 | 7 | 148 | 0.0 | 0.0 | 0.00 | 0.00 | 0.00 | 90 | 1024.9 |
| 20260906113929 | 7 | 133 | 0.0 | 0.0 | 0.00 | 0.00 | 0.00 | 91 | 1025.1 |
| 20260906113427 | 7 | 170 | 0.0 | 0.0 | 0.00 | 0.00 | 0.00 | 89 | 1024.9 |
| 20260906112923 | 7 | 176 | 0.0 | 0.0 | 0.00 | 0.00 | 0.00 | 89 | 1024.9 |
| 20260906112418 | 7 | 181 | 0.0 | 0.0 | 0.00 | 0.00 | 0.00 | 90 | 1024.6 |
| 20260906111914 | 7 | 175 | 0.0 | 0.0 | 0.00 | 0.00 | 0.00 | 91 | 1024.9 |
| 20260906111413 | 7 | 153 | 0.0 | 0.0 | 0.00 | 0.00 | 0.00 | 91 | 1024.8 |
| 20260906110908 | 7 | 164 | 0.0 | 0.0 | 0.00 | 0.00 | 0.00 | 91 | 1024.7 |
| 20260906110404 | 7 | 158 | 0.0 | 0.0 | 0.00 | 0.00 | 0.00 | 90 | 1024.7 |
| 20260906105903 | 7 | 175 | 0.0 | 0.0 | 0.00 | 0.00 | 0.00 | 89 | 1025.1 |
| 20260906105359 | 7 | 134 | 0.0 | 1.6 | 0.00 | 0.00 | 0.00 | 91 | 1024.6 |
| 20260906104854 | 7 | 159 | 0.0 | 0.0 | 0.00 | 0.00 | 0.00 | 92 | 1024.7 |
| 20260906104353 | 7 | 169 | 0.0 | 0.0 | 0.00 | 0.00 | 0.00 | 91 | 1024.7 |
| 20260906103852 | 7 | 168 | 0.0 | 0.0 | 0.00 | 0.00 | 0.00 | 91 | 1024.8 |
| 20260906103350 | 8 | 175 | 0.0 | 0.0 | 0.00 | 0.00 | 0.00 | 90 | 1024.7 |
| 20260906102846 | 8 | 160 | 0.0 | 0.0 | 0.00 | 0.00 | 0.00 | 90 | 1024.9 |
| 20260906102345 | 8 | 186 | 0.0 | 0.0 | 0.00 | 0.00 | 0.00 | 90 | 1024.6 |
| 20260906101840 | 8 | 179 | 0.0 | 0.0 | 0.00 | 0.00 | 0.00 | 91 | 1024.6 |
| 20260906101335 | 8 | 154 | 0.0 | 0.0 | 0.00 | 0.00 | 0.00 | 91 | 1024.8 |
| 20260906100831 | 8 | 170 | 0.0 | 0.0 | 0.00 | 0.00 | 0.00 | 90 | 1024.6 |
| 20260906100330 | 8 | 165 | 0.0 | 0.0 | 0.00 | 0.00 | 0.00 | 90 | 1024.6 |
| 20260906095825 | 8 | 116 | 0.0 | 1.6 | 0.00 | 0.00 | 0.00 | 90 | 1024.3 |
| 20260906095321 | 8 | 176 | 0.0 | 0.0 | 0.00 | 0.00 | 0.00 | 89 | 1024.5 |
| 20260906094820 | 8 | 172 | 0.0 | 0.0 | 0.00 | 0.00 | 0.00 | 90 | 1024.5 |
| 20260906094315 | 8 | 178 | 0.0 | 0.0 | 0.00 | 0.00 | 0.00 | 90 | 1024.7 |
| 20260906093812 | 8 | 156 | 0.0 | 0.0 | 0.00 | 0.00 | 0.00 | 90 | 1024.7 |
| 20260906093307 | 8 | 128 | 0.0 | 0.0 | 0.00 | 0.00 | 0.00 | 91 | 1024.5 |
| 20260906092802 | 8 | 157 | 0.0 | 0.0 | 0.00 | 0.00 | 0.00 | 89 | 1024.7 |
| 20260906092256 | 9 | 158 | 0.0 | 0.0 | 0.00 | 0.00 | 0.00 | 88 | 1024.3 |
| 20260906091752 | 9 | 175 | 0.0 | 0.0 | 0.00 | 0.00 | 0.00 | 88 | 1024.2 |
| 20260906091248 | 8 | 114 | 0.0 | 0.0 | 0.00 | 0.00 | 0.00 | 87 | 1024.7 |
| 20260906090744 | 8 | 179 | 0.0 | 0.0 | 0.00 | 0.00 | 0.00 | 85 | 1024.3 |
| 20260906090243 | 8 | 168 | 0.0 | 0.0 | 0.00 | 0.00 | 0.00 | 86 | 1024.6 |
| 20260906085742 | 9 | 168 | 0.0 | 0.0 | 0.00 | 0.00 | 0.00 | 87 | 1024.5 |
| 20260906085242 | 9 | 146 | 0.0 | 0.0 | 0.00 | 0.00 | 0.00 | 86 | 1024.5 |
| 20260906084736 | 10 | 127 | 0.0 | 0.0 | 0.00 | 0.00 | 0.00 | 85 | 1024.7 |
| 20260906084231 | 9 | 163 | 0.0 | 0.0 | 0.00 | 0.00 | 0.00 | 87 | 1024.6 |
| 20260906083726 | 9 | 148 | 0.0 | 0.0 | 0.00 | 0.00 | 0.00 | 85 | 1024.7 |
| 20260906083221 | 9 | 161 | 0.0 | 0.0 | 0.00 | 0.00 | 0.00 | 83 | 1024.3 |
| 20260906082716 | 9 | 175 | 0.0 | 0.0 | 0.00 | 0.00 | 0.00 | 84 | 1024.5 |
| 20260906082211 | 9 | 175 | 0.0 | 0.0 | 0.00 | 0.00 | 0.00 | 84 | 1024.6 |
| 20260906081707 | 9 | 175 | 0.0 | 0.0 | 0.00 | 0.00 | 0.00 | 84 | 1024.7 |
| 20260906081202 | 10 | 172 | 0.0 | 0.0 | 0.00 | 0.00 | 0.00 | 84 | 1024.6 |
| 20260906080659 | 10 | 143 | 0.0 | 0.0 | 0.00 | 0.00 | 0.00 | 86 | 1024.6 |
| 20260906080155 | 10 | 159 | 0.0 | 0.0 | 0.00 | 0.00 | 0.00 | 86 | 1024.8 |
| 20260906075654 | 10 | 156 | 0.0 | 0.0 | 0.00 | 0.00 | 0.00 | 85 | 1024.8 |
| 20260906075149 | 10 | 177 | 0.0 | 0.0 | 0.00 | 0.00 | 0.00 | 84 | 1024.3 |
| 20260906074644 | 10 | 184 | 0.0 | 0.0 | 0.00 | 0.00 | 0.00 | 84 | 1024.6 |
| 20260906074143 | 10 | 188 | 0.0 | 0.0 | 0.00 | 0.00 | 0.00 | 84 | 1024.9 |
| 20260906073638 | 10 | 157 | 0.0 | 0.0 | 0.00 | 0.00 | 0.00 | 83 | 1024.6 |
| 20260906073134 | 10 | 131 | 0.0 | 0.0 | 0.00 | 0.00 | 0.00 | 85 | 1024.8 |
| 20260906072628 | 10 | 126 | 0.0 | 1.6 | 0.00 | 0.00 | 0.00 | 84 | 1024.6 |
| 20260906072124 | 10 | 174 | 0.0 | 0.0 | 0.00 | 0.00 | 0.00 | 84 | 1024.7 |
| 20260906071621 | 11 | 157 | 0.0 | 0.0 | 0.00 | 0.00 | 0.00 | 84 | 1024.7 |
| 20260906071115 | 11 | 151 | 0.0 | 0.0 | 0.00 | 0.00 | 0.00 | 83 | 1024.8 |
| 20260906070612 | 11 | 157 | 0.0 | 0.0 | 0.00 | 0.00 | 0.00 | 83 | 1024.8 |
| 20260906070107 | 11 | 164 | 0.0 | 0.0 | 0.00 | 0.00 | 0.00 | 83 | 1024.9 |
| 20260906065606 | 11 | 163 | 0.0 | 0.0 | 0.00 | 0.00 | 0.00 | 81 | 1024.8 |
| 20260906065102 | 11 | 177 | 0.0 | 0.0 | 0.00 | 0.00 | 0.00 | 80 | 1024.3 |
| 20260906064558 | 11 | 181 | 0.0 | 0.0 | 0.00 | 0.00 | 0.00 | 78 | 1024.6 |
| 20260906064052 | 11 | 159 | 0.0 | 0.0 | 0.00 | 0.00 | 0.00 | 80 | 1024.6 |
| 20260906063547 | 11 | 162 | 0.0 | 0.0 | 0.00 | 0.00 | 0.00 | 80 | 1024.6 |
| 20260906063043 | 11 | 176 | 0.0 | 0.0 | 0.00 | 0.00 | 0.00 | 80 | 1024.5 |
| 20260906062538 | 11 | 145 | 0.0 | 0.0 | 0.00 | 0.00 | 0.00 | 79 | 1024.7 |
| 20260906062032 | 11 | 180 | 0.0 | 0.0 | 0.00 | 0.00 | 0.00 | 79 | 1024.3 |
| 20260906061529 | 11 | 176 | 0.0 | 0.0 | 0.00 | 0.00 | 0.00 | 79 | 1024.3 |
| 20260906061028 | 12 | 165 | 0.0 | 0.0 | 0.00 | 0.00 | 0.00 | 77 | 1024.6 |
| 20260906060525 | 12 | 169 | 0.0 | 0.0 | 0.00 | 0.00 | 0.00 | 76 | 1024.5 |
| 20260906060022 | 12 | 148 | 0.0 | 0.0 | 0.00 | 0.00 | 0.00 | 78 | 1024.3 |
| 20260906055517 | 12 | 111 | 0.0 | 0.0 | 0.00 | 0.00 | 0.00 | 79 | 1024.3 |
| 20260906055013 | 12 | 163 | 0.0 | 0.0 | 0.00 | 0.00 | 0.00 | 71 | 1024.2 |
| 20260906054507 | 12 | 174 | 0.0 | 0.0 | 0.00 | 0.00 | 0.00 | 73 | 1024.2 |
| 20260906054002 | 12 | 175 | 0.0 | 0.0 | 0.00 | 0.00 | 0.00 | 73 | 1024.6 |
| 20260906053459 | 12 | 172 | 0.0 | 0.0 | 0.00 | 0.00 | 0.00 | 74 | 1024.6 |
| 20260906052954 | 12 | 151 | 0.0 | 0.0 | 0.00 | 0.00 | 0.00 | 76 | 1024.5 |
| 20260906052450 | 12 | 146 | 0.0 | 0.0 | 0.00 | 0.00 | 0.00 | 75 | 1024.5 |
| 20260906051947 | 13 | 129 | 0.0 | 0.0 | 0.00 | 0.00 | 0.00 | 75 | 1024.2 |
| 20260906051442 | 13 | 125 | 0.0 | 0.0 | 0.00 | 0.00 | 0.00 | 75 | 1024.5 |
| 20260906050937 | 13 | 180 | 0.0 | 0.0 | 0.00 | 0.00 | 0.00 | 69 | 1024.3 |
| 20260906050437 | 13 | 164 | 0.0 | 0.0 | 0.00 | 0.00 | 0.00 | 73 | 1024.2 |
| 20260906045936 | 13 | 169 | 0.0 | 0.0 | 0.00 | 0.00 | 0.00 | 73 | 1024.1 |
| 20260906045435 | 14 | 108 | 1.6 | 1.6 | 0.00 | 0.00 | 0.00 | 69 | 1024.5 |
| 20260906044931 | 14 | 169 | 0.0 | 0.0 | 0.00 | 0.00 | 0.00 | 71 | 1024.3 |
| 20260906044426 | 14 | 157 | 0.0 | 0.0 | 0.00 | 0.00 | 0.00 | 67 | 1024.1 |
| 20260906043921 | 15 | 157 | 0.0 | 0.0 | 0.00 | 0.00 | 0.00 | 65 | 1024.1 |
| 20260906043417 | 15 | 149 | 0.0 | 0.0 | 0.00 | 0.00 | 0.00 | 71 | 1024.1 |
| 20260906042913 | 15 | 126 | 0.0 | 0.0 | 0.00 | 0.00 | 0.00 | 66 | 1024.2 |
| 20260906042412 | 15 | 166 | 0.0 | 0.0 | 0.00 | 0.00 | 0.00 | 65 | 1023.7 |
| 20260906041907 | 15 | 161 | 0.0 | 0.0 | 0.00 | 0.00 | 0.00 | 67 | 1024.0 |
| 20260906041402 | 15 | 142 | 0.0 | 0.0 | 0.00 | 0.00 | 0.00 | 64 | 1023.8 |
| 20260906040857 | 15 | 151 | 0.0 | 0.0 | 0.00 | 0.00 | 0.00 | 61 | 1023.8 |
| 20260906040352 | 16 | 123 | 0.0 | 0.0 | 0.00 | 0.00 | 0.00 | 63 | 1023.8 |
| 20260906035848 | 15 | 175 | 0.0 | 0.0 | 0.00 | 0.00 | 0.00 | 58 | 1023.6 |
| 20260906035343 | 15 | 164 | 0.0 | 0.0 | 0.00 | 0.00 | 0.00 | 59 | 1023.7 |
| 20260906034838 | 15 | 174 | 0.0 | 0.0 | 0.00 | 0.00 | 0.00 | 61 | 1023.6 |
| 20260906034333 | 16 | 186 | 0.0 | 0.0 | 0.00 | 0.00 | 0.00 | 62 | 1023.8 |
| 20260906033829 | 16 | 169 | 0.0 | 0.0 | 0.00 | 0.00 | 0.00 | 62 | 1023.6 |
| 20260906033328 | 16 | 142 | 0.0 | 0.0 | 0.00 | 0.00 | 0.00 | 61 | 1023.4 |
| 20260906032824 | 16 | 170 | 0.0 | 0.0 | 0.00 | 0.00 | 0.00 | 60 | 1023.4 |
| 20260906032320 | 16 | 161 | 0.0 | 0.0 | 0.00 | 0.00 | 0.00 | 58 | 1023.1 |
| 20260906031815 | 17 | 100 | 0.0 | 1.6 | 0.00 | 0.00 | 0.00 | 56 | 1023.4 |
| 20260906031311 | 17 | 157 | 0.0 | 0.0 | 0.00 | 0.00 | 0.00 | 55 | 1023.1 |
| 20260906030810 | 17 | 192 | 0.0 | 0.0 | 0.00 | 0.00 | 0.00 | 54 | 1023.0 |
| 20260906030305 | 17 | 193 | 0.0 | 0.0 | 0.00 | 0.00 | 0.00 | 57 | 1022.9 |
| 20260906025805 | 17 | 145 | 0.0 | 0.0 | 0.00 | 0.00 | 0.00 | 59 | 1022.8 |
| 20260906025259 | 17 | 173 | 0.0 | 0.0 | 0.00 | 0.00 | 0.00 | 60 | 1022.5 |
| 20260906024758 | 17 | 114 | 1.6 | 1.6 | 0.00 | 0.00 | 0.00 | 63 | 1022.6 |
| 20260906024252 | 17 | 170 | 0.0 | 0.0 | 0.00 | 0.00 | 0.00 | 60 | 1022.3 |
| 20260906023747 | 18 | 158 | 0.0 | 0.0 | 0.00 | 0.00 | 0.00 | 55 | 1022.3 |
| 20260906023243 | 18 | 145 | 0.0 | 0.0 | 0.00 | 0.00 | 0.00 | 53 | 1022.0 |
| 20260906022738 | 19 | 151 | 0.0 | 1.6 | 0.00 | 0.00 | 0.00 | 51 | 1021.9 |
| 20260906022233 | 20 | 158 | 0.0 | 0.0 | 0.00 | 0.00 | 0.00 | 50 | 1021.9 |
| 20260906021729 | 20 | 184 | 0.0 | 0.0 | 0.00 | 0.00 | 0.00 | 47 | 1021.8 |
| 20260906021228 | 20 | 173 | 0.0 | 0.0 | 0.00 | 0.00 | 0.00 | 45 | 1021.8 |
| 20260906020723 | 21 | 189 | 0.0 | 0.0 | 0.00 | 0.00 | 0.00 | 44 | 1021.7 |
| 20260906020217 | 21 | 190 | 0.0 | 0.0 | 0.00 | 0.00 | 0.00 | 41 | 1021.8 |
| 20260906015712 | 21 | 184 | 0.0 | 0.0 | 0.00 | 0.00 | 0.00 | 40 | 1021.5 |
| 20260906015210 | 21 | 188 | 0.0 | 0.0 | 0.00 | 0.00 | 0.00 | 41 | 1021.7 |
| 20260906014705 | 21 | 214 | 0.0 | 1.6 | 0.00 | 0.00 | 0.00 | 39 | 1021.8 |
| 20260906014201 | 22 | 184 | 0.0 | 0.0 | 0.00 | 0.00 | 0.00 | 40 | 1021.5 |
| 20260906013657 | 22 | 192 | 0.0 | 0.0 | 0.00 | 0.00 | 0.00 | 38 | 1021.7 |
| 20260906013152 | 22 | 214 | 0.0 | 1.6 | 0.00 | 0.00 | 0.00 | 39 | 1021.5 |
| 20260906012652 | 22 | 190 | 0.0 | 0.0 | 0.00 | 0.00 | 0.00 | 38 | 1021.4 |
| 20260906012152 | 22 | 220 | 0.0 | 1.6 | 0.00 | 0.00 | 0.00 | 38 | 1021.7 |
| 20260906011648 | 22 | 191 | 0.0 | 0.0 | 0.00 | 0.00 | 0.00 | 39 | 1021.5 |
| 20260906011142 | 23 | 212 | 0.0 | 1.6 | 0.00 | 0.00 | 0.00 | 39 | 1021.3 |
| 20260906010638 | 23 | 205 | 0.0 | 0.0 | 0.00 | 0.00 | 0.00 | 40 | 1021.4 |
| 20260906010134 | 23 | 185 | 0.0 | 0.0 | 0.00 | 0.00 | 0.00 | 42 | 1021.3 |
| 20260906005633 | 23 | 190 | 0.0 | 0.0 | 0.00 | 0.00 | 0.00 | 38 | 1021.5 |
| 20260906005133 | 25 | 180 | 0.0 | 0.0 | 0.00 | 0.00 | 0.00 | 38 | 1021.4 |
| 20260906004632 | 25 | 235 | 1.6 | 1.6 | 0.00 | 0.00 | 0.00 | 36 | 1021.4 |
| 20260906004127 | 26 | 186 | 0.0 | 0.0 | 0.00 | 0.00 | 0.00 | 36 | 1021.7 |
| 20260906003622 | 26 | 198 | 1.6 | 1.6 | 0.00 | 0.00 | 0.00 | 33 | 1021.7 |
| 20260906003118 | 26 | 178 | 1.6 | 1.6 | 0.00 | 0.00 | 0.00 | 33 | 1021.5 |
| 20260906002613 | 26 | 249 | 3.2 | 3.2 | 0.00 | 0.00 | 0.00 | 32 | 1021.8 |
| 20260906002107 | 27 | 185 | 0.0 | 1.6 | 0.00 | 0.00 | 0.00 | 34 | 1021.5 |
| 20260906001602 | 28 | 224 | 1.6 | 1.6 | 0.00 | 0.00 | 0.00 | 30 | 1021.5 |
| 20260906001057 | 29 | 214 | 1.6 | 1.6 | 0.00 | 0.00 | 0.00 | 28 | 1021.5 |
| 20260906000553 | 29 | 241 | 1.6 | 1.6 | 0.00 | 0.00 | 0.00 | 28 | 1021.3 |
| 20260906000048 | 29 | 179 | 1.6 | 1.6 | 0.00 | 0.00 | 0.00 | 28 | 1021.2 |
| 20260905235547 | 29 | 199 | 1.6 | 1.6 | 0.00 | 0.00 | 0.00 | 29 | 1021.2 |
| 20260905235042 | 28 | 170 | 3.2 | 3.2 | 0.00 | 0.00 | 0.00 | 29 | 1021.3 |
| 20260905234538 | 28 | 148 | 1.6 | 1.6 | 0.00 | 0.00 | 0.00 | 31 | 1021.2 |
| 20260905234033 | 28 | 149 | 0.0 | 0.0 | 0.00 | 0.00 | 0.00 | 32 | 1021.3 |
| 20260905233533 | 28 | 145 | 0.0 | 1.6 | 0.00 | 0.00 | 0.00 | 28 | 1021.3 |
| 20260905233033 | 30 | 176 | 4.8 | 8.0 | 0.00 | 0.00 | 0.00 | 27 | 1021.2 |